Probability
0 0 0 0 0 0 0 0 0 0 0 0 0 0 0 0 0 0 0 0 0 0 0 0 0 0 0 0 0 0 0 0 0 0 0 0 0 0 0 0 0 0 0 0 0 0 0 0 0
0 0 0 0 0 0 0 0 0 0 0 0 0 0 0 0 0 0 0 0 0 0 0 0 0 0 0 0 0 0 0 0 0 0 0 0 0 0 0 0 0 0 0 0 0 0 0 0 0
0 0 0 0 0 0 0 0 0 0 0 0 0 0 0 0 0 0 0 0 0 0 0 0 0 0 0 0 0 0 0 0 0 0 0 0 0 0 0 0 0 0 0 0 0 0 0 0 0
0 0 0 0 0 0 0 0 0 0 0 0 0 0 0 0 0 0 0 0 0 0 0 0 0 0 0 0 0 0 0 0 0 0 0 0 0 0 0 0 0 0 0 0 0 0 0 0 0
0 0 0 0 0 0 0 0 0 0 0 0 0 0 0 0 0 0 0 0 0 0 0 0 0 0 0 0 0 0 0 0 0 0 0 0 0 0 0 0 0 0 0 0 0 0 0 0 0
0 0 0 0 0 0 0 0 0 0 0 0 0 0 0 0 0 0 0 0 0 0 0 0 0 0 0 0 0 0 0 0 0 0 0 0 0 0 0 0 0 0 0 0 0 0 0 0 0
0 0 0 0 0 0 0 0 0 0 0 0 0 0 0 0 0 0 0 0 0 0 0 0 0 0 0 0 0 0 0 0 0 0 0 0 0 0 0 0 0 0 0 0 0 0 0 0 0
0 0 0 0 0 0 0 0 0 0 0 0 0 0 0 0 0 0 0 0 0 0 0 0 0 0 0 0 0 0 0 0 0 0 0 0 0 0 0 0 0 0 0 0 0 0 0 0 0
0 0 0 0 0 0 0 0 0 0 0 0 0 0 0 0 0 0 0 0 0 0 0 0 0 0 0 0 0 0 0 0 0 0 0 0 0 0 0 0 0 0 0 0 0 0 0 0 0
0 0 0 0 0 0 0 0 0 0 0 0 0 0 0 0 0 0 0 0 0 0 0 0 0 0 0 0 0 0 0 0 0 0 0 0 0 0 0 0 0 0 0 0 0 0 0 0 0
0 0 0 0 0 0 0 0 0 0 0 0 0 0 0 0 0 0 0 0 0 0 0 0 0 0 0 0 0 0 0 0 0 0 0 0 0 0 0 0 0 0 0 0 0 0 0 0 0
0 0 0 0 0 0 0 0 0 0 0 0 0 0 0 0 0 0 0 0 0 0 0 0 0 0 0 0 0 0 0 0 0 0 0 0 0 0 0 0 0 0 0 0 0 0 0 0 0
0 0 0 0 0 0 0 0 0 0 0 0 0 0 0 0 0 0 0 0 0 0 0 0 0 0 0 0 0 0 0 0 0 0 0 0 0 0 0 0 0 0 0 0 0 0 0 0 0
0 0 0 0 0 0 0 0 0 0 0 0 0 0 0 0 0 0 0 0 0 0 0 0 0 0 0 0 0 0 0 0 0 0 0 0 0 0 0 0 0 0 0 0 0 0 0 0 0
0 0 0 0 0 0 0 0 0 0 0 0 0 0 0 0 0 0 0 0 0 0 0 0 0 0 0 0 0 0 0 0 0 0 0 0 0 0 0 0 0 0 0 0 0 0 0 0 0
0 0 0 0 0 0 0 0 0 0 0 0 0 0 0 0 0 0 0 0 0 0 0 0 0 0 0 0 0 0 0 0 0 0 0 0 0 0 0 0 0 0 0 0 0 0 0 0 0
0 0 0 0 0 0 0 0 0 0 0 0 0 0 0 0 0 0 0 0 0 0 0 0 0 0 0 0 0 0 0 0 0 0 0 0 0 0 0 0 0 0 0 0 0 0 0 0 0
0 0 0 0 0 0 0 0 0 0 0 0 0 0 0 0 0 0 0 0 0 0 0 0 0 0 0 0 0 0 0 0 0 0 0 0 0 0 0 0 0 0 0 0 0 0 0 0 0
0 0 0 0 0 0 0 0 0 0 0 0 0 0 0 0 0 0 0 0 0 0 0 0 0 0 0 0 0 0 0 0 0 0 0 0 0 0 0 0 0 0 0 0 0 0 0 0 0
0 0 0 0 0 0 0 0 0 0 0 0 0 0 0 0 0 0 0 0 0 0 0 0 0 0 0 0 0 0 0 0 0 0 0 0 0 0 0 0 0 0 0 0 0 0 0 0 0
0 0 0 0 0 0 0 0 0 0 0 0 0 0 0 0 0 0 0 0 0 0 0 0 0 0 0 0 0 0 0 0 0 0 0 0 0 0 0 0 0 0 0 0 0 0 0 0 0
0 0 0 0 0 0 0 0 0 0 0 0 0 0 0 0 0 0 0 0 0 0 0 0 0 0 0 0 0 0 0 0 0 0 0 0 0 0 0 0 0 0 0 0 0 0 0 0 0
0 0 0 0 0 0 0 0 0 0 0 0 0 0 0 0 0 0 0 0 0 0 0 0 0 0 0 0 0 0 0 0 0 0 0 0 0 0 0 0 0 0 0 0 0 0 0 0 0
0 0 0 0 0 0 0 0 0 0 0 0 0 0 0 0 0 0 0 0 0 0 0 0 0 0 0 0 0 0 0 0 0 0 0 0 0 0 0 0 0 0 0 0 0 0 0 0 0
0 0 0 0 0 0 0 0 0 0 0 0 0 0 0 0 0 0 0 0 0 0 0 0 0 0 0 0 0 0 0 0 0 0 0 0 0 0 0 0 0 0 0 0 0 0 0 0 0
0 0 0 0 0 0 0 0 0 0 0 0 0 0 0 0 0 0 0 0 0 0 0 0 0 0 0 0 0 0 0 0 0 0 0 0 0 0 0 0 0 0 0 0 0 0 0 0 0
0 0 0 0 0 0 0 0 0 0 0 0 0 0 0 0 0 0 0 0 0 0 0 0 0 0 0 0 0 0 0 0 0 0 0 0 0 0 0 0 0 0 0 0 0 0 0 0 0
0 0 0 0 0 0 0 0 0 0 0 0 0 0 0 0 0 0 0 0 0 0 0 0 0 0 0 0 0 0 0 0 0 0 0 0 0 0 0 0 0 0 0 0 0 0 0 0 0
0 0 0 0 0 0 0 0 0 0 0 0 0 0 0 0 0 0 0 0 0 0 0 0 0 0 0 0 0 0 0 0 0 0 0 0 0 0 0 0 0 0 0 0 0 0 0 0 0
0 0 0 0 0 0 0 0 0 0 0 0 0 0 0 0 0 0 0 0 0 0 0 0 0 0 0 0 0 0 0 0 0 0 0 0 0 0 0 0 0 0 0 0 0 0 0 0 0
Wind_Speed
1 2 3 3 4 3 2 2 2 3 1 1 0 2 4 5 6 6 4 7 7 13 17 19 19 18 16 14 13 12 11 10 9 9 9 9 8 8 8 8 9 10 10 10 10 10 11 11 11
2 3 4 4 4 4 3 1 2 5 3 0 3 4 4 3 2 3 3 8 9 13 16 17 19 18 17 15 14 13 12 10 9 9 8 8 8 8 8 8 8 8 9 9 9 9 10 10 10
2 4 3 4 4 2 2 2 5 4 1 3 3 3 4 3 1 1 4 9 10 13 15 16 20 18 17 16 14 13 12 11 10 9 9 8 8 7 7 7 7 7 7 8 8 8 8 9 9
3 4 3 4 4 1 2 4 5 4 1 3 4 4 3 1 1 4 4 10 12 14 16 16 20 19 17 16 15 14 12 11 10 10 9 8 8 7 7 6 6 6 6 6 7 7 7 7 7
3 4 5 5 3 1 2 4 3 3 0 2 4 5 4 4 2 2 4 10 11 14 15 16 20 19 18 16 15 14 13 12 11 10 9 8 8 7 7 6 6 5 5 5 5 5 6 6 6
3 3 5 5 4 2 3 2 2 3 2 2 4 6 4 5 2 2 4 9 10 13 14 14 19 18 18 17 16 15 14 13 12 11 10 9 8 8 7 6 6 5 4 4 4 4 4 4 4
2 3 5 5 5 4 1 1 3 4 6 4 3 6 4 5 3 2 5 8 9 12 13 13 15 16 17 16 16 15 14 13 12 11 10 9 8 8 7 6 6 5 4 3 3 2 2 2 2
1 3 5 5 6 5 0 2 3 6 7 2 3 7 6 5 4 3 5 7 9 11 13 13 14 14 14 14 15 14 14 13 12 11 10 9 8 8 7 7 6 5 5 4 3 2 1 0 0
3 6 7 6 5 4 1 4 3 4 6 5 6 8 5 3 2 5 6 8 10 11 13 13 13 13 12 12 12 13 13 12 11 10 9 8 7 7 7 7 6 6 6 5 5 5 4 3 2
3 6 7 3 4 5 4 6 7 6 9 8 7 6 2 3 5 8 9 11 13 14 15 13 13 13 12 9 9 9 9 9 10 8 9 8 6 5 4 5 6 6 5 6 5 5 5 6 4
3 6 3 4 4 5 6 6 4 6 8 7 9 11 7 6 8 10 11 11 12 12 13 13 13 12 11 8 8 6 5 6 8 9 8 6 6 4 5 4 6 6 5 6 4 6 5 5 4
4 4 4 3 1 3 5 6 6 7 7 8 9 10 10 9 8 9 10 10 9 11 13 14 14 12 12 10 8 7 6 6 6 7 8 7 5 5 5 5 5 5 5 6 6 5 7 7 8
5 4 3 4 5 6 7 8 7 6 6 7 6 6 6 7 7 7 7 8 9 11 12 13 14 14 12 10 8 8 8 7 8 7 8 9 7 7 7 6 6 7 6 6 7 7 8 9 9
2 4 7 7 6 3 4 4 4 3 4 4 4 6 7 7 7 5 4 6 9 10 11 12 14 14 13 11 10 8 8 7 8 7 9 11 8 8 7 8 8 8 8 8 8 9 9 9 8
3 6 7 2 2 2 4 5 4 2 5 4 5 7 8 9 8 7 4 3 6 8 9 11 12 13 14 13 11 8 8 8 8 8 10 11 11 10 9 8 8 8 9 10 9 10 9 9 10
3 5 4 3 0 1 5 4 4 3 5 4 5 7 9 10 11 10 7 2 2 5 7 9 8 11 12 11 10 8 7 8 8 8 8 11 12 12 10 9 9 10 8 8 9 9 9 10 10
5 5 3 1 1 1 4 6 1 3 3 2 5 7 9 11 13 13 10 7 5 4 6 7 8 9 9 9 8 7 7 8 8 7 8 10 12 12 11 10 10 10 8 8 9 10 10 11 12
4 5 5 5 0 4 7 8 5 3 1 4 5 7 9 11 12 12 11 10 8 6 5 6 6 6 6 6 5 5 6 7 7 7 9 11 10 12 11 10 12 11 9 9 10 12 12 11 11
4 7 9 6 2 5 7 9 6 1 5 6 6 7 9 10 10 11 11 11 10 9 7 6 5 5 5 4 4 4 5 6 6 7 10 11 11 11 11 10 11 11 10 12 13 12 13 11 10
6 8 9 5 1 5 7 9 3 4 6 5 6 7 8 9 10 11 11 11 11 10 8 7 5 5 5 3 3 2 3 3 4 5 7 10 11 11 10 12 11 11 10 13 13 13 10 10 8
8 9 8 5 2 4 6 5 5 6 6 5 5 6 7 8 10 10 11 12 11 10 9 6 6 5 4 3 2 2 2 3 3 4 5 7 9 10 11 12 12 11 11 11 13 12 14 11 10
8 5 6 5 6 3 3 4 8 10 9 8 7 7 8 8 9 9 10 11 11 9 8 8 7 5 4 3 2 3 3 3 4 4 4 6 7 8 10 11 12 12 11 12 12 13 12 13 11
2 3 3 3 5 6 5 7 6 10 13 12 10 9 8 8 8 9 9 9 9 8 7 7 7 6 4 2 1 2 3 4 4 5 6 6 6 7 8 9 10 11 10 13 13 13 13 12 13
6 5 3 2 4 6 4 7 5 9 14 15 12 10 9 9 8 9 9 9 8 7 7 7 7 7 5 3 1 1 3 5 6 6 7 6 5 5 8 8 9 10 10 12 13 13 15 14 15
6 5 5 5 6 3 3 6 5 4 5 10 13 12 11 9 9 9 9 8 8 7 7 6 6 6 5 4 3 3 3 5 6 7 7 8 7 7 8 8 9 10 10 12 12 13 14 15 16
7 6 6 4 3 1 4 7 1 3 2 3 8 10 10 9 8 8 8 7 7 6 6 5 5 5 4 4 3 3 4 4 5 7 8 9 8 8 10 11 11 12 12 12 12 12 14 13 15
7 6 2 3 2 5 5 4 3 3 4 6 10 11 10 9 9 8 7 6 5 5 5 4 4 4 4 4 4 5 6 6 7 9 9 8 9 9 11 12 12 13 13 13 13 12 14 14 15
2 5 5 5 5 5 4 5 4 7 8 9 11 11 10 9 8 8 6 5 4 4 3 3 3 3 3 4 5 5 7 8 8 9 10 10 11 11 12 13 13 13 14 14 14 13 14 15 15
7 5 5 3 4 5 4 2 2 4 6 9 10 9 9 9 8 7 6 4 3 2 2 1 2 3 4 5 6 7 8 9 10 9 10 11 11 12 13 13 14 14 15 15 14 15 16 17 17
5 6 8 6 6 5 5 2 4 3 4 6 7 6 6 7 7 6 5 4 3 1 0 1 2 3 5 6 7 8 9 9 10 11 12 12 13 13 13 14 15 15 15 15 16 16 16 17 17
Wind_Direction
204 229 229 225 218 222 188 87 358 351 331 36 334 256 307 333 342 360 66 158 154 161 166 171 173 171 171 170 166 162 156 150 143 134 126 121 115 110 104 95 88 82 78 75 73 73 72 70 67
236 224 222 226 235 207 149 90 1 355 8 298 211 232 256 274 289 334 115 158 165 164 168 172 171 173 173 173 169 166 162 157 152 144 138 134 125 115 109 102 94 88 83 79 75 75 75 73 70
199 244 229 209 226 228 127 48 357 349 299 236 219 236 286 321 175 64 72 156 167 167 172 169 171 175 176 176 173 170 166 164 162 155 150 147 138 127 118 111 102 96 90 84 79 76 77 77 74
217 206 214 225 202 206 313 352 347 325 179 221 262 252 234 290 25 53 102 163 169 169 173 168 175 177 178 178 176 173 172 171 170 164 161 158 150 141 132 122 114 107 99 91 84 78 76 78 81
233 222 207 215 223 235 290 328 316 301 253 190 259 285 285 117 87 72 144 171 175 171 174 170 178 179 180 181 179 177 176 177 177 172 170 168 160 151 143 137 131 123 113 102 91 81 77 74 80
205 226 228 228 236 267 280 279 264 275 288 246 252 281 290 107 126 108 161 178 179 173 175 171 179 183 183 184 183 181 181 182 182 180 179 178 172 164 159 158 152 145 134 118 104 91 79 74 73
243 237 250 258 267 275 296 186 263 303 293 292 264 279 277 129 78 117 166 177 180 178 179 177 181 185 187 188 187 185 186 187 187 187 187 186 183 179 174 173 171 166 161 150 133 112 93 81 78
303 248 243 253 267 283 143 212 267 290 304 342 248 270 295 79 88 139 159 176 182 184 187 185 186 187 189 189 189 189 189 190 192 192 191 189 190 193 187 190 188 188 189 187 185 185 181 161 53
248 247 252 259 267 281 217 269 282 264 275 254 243 275 342 79 148 171 175 184 189 193 194 193 191 190 191 191 186 189 190 192 194 194 185 189 204 202 197 197 191 207 211 214 217 220 220 223 214
229 249 260 263 262 286 288 285 300 272 270 270 262 255 236 229 220 217 210 201 196 196 196 196 197 192 193 190 189 195 195 193 201 203 196 202 208 208 212 157 198 221 235 236 240 244 232 235 232
235 255 260 244 255 277 283 286 275 277 286 306 310 313 305 263 245 240 234 222 208 199 195 200 199 196 196 192 196 195 197 199 206 209 203 200 206 206 214 208 199 213 224 234 220 232 237 245 252
247 249 256 266 213 256 275 288 275 260 285 335 316 308 301 283 268 253 245 233 214 203 199 200 200 200 202 202 198 200 198 200 203 205 205 202 210 221 223 228 231 231 228 238 242 248 247 251 251
243 263 253 258 262 268 271 267 278 271 310 325 327 327 322 312 298 277 257 240 219 208 201 201 201 202 202 207 208 208 208 208 206 205 208 212 217 224 226 233 235 239 243 241 246 250 254 254 254
280 272 278 280 267 238 252 264 244 264 342 340 3 13 7 358 343 321 267 233 217 210 203 198 202 204 204 207 212 213 216 214 219 212 216 219 225 230 231 238 240 243 243 246 250 253 257 257 255
265 278 273 223 234 215 262 259 202 40 334 2 34 38 32 27 21 9 345 249 216 204 200 197 200 204 207 212 217 221 221 222 223 223 225 224 230 235 236 243 244 245 246 247 249 255 258 259 258
236 252 244 149 296 209 267 273 128 32 348 26 45 46 43 40 36 30 26 51 154 175 185 187 191 204 209 213 217 222 227 229 231 232 233 233 236 239 242 245 249 250 249 247 248 252 252 253 255
225 248 260 229 135 283 270 276 156 1 338 69 66 57 51 47 38 35 39 57 86 128 154 171 185 198 205 212 219 227 233 236 240 239 239 240 241 242 244 249 254 255 251 248 251 254 254 259 261
248 259 266 276 261 285 270 269 291 346 211 121 92 76 63 52 41 39 47 59 72 89 116 142 165 184 188 198 213 224 237 242 246 246 246 247 245 243 246 252 256 257 253 251 251 254 257 259 267
269 265 273 282 324 281 270 278 291 292 163 134 108 89 76 67 59 56 58 64 74 80 92 110 135 154 167 174 196 215 231 237 241 245 251 251 251 249 247 251 257 253 250 253 257 258 259 258 260
236 257 269 271 200 272 287 283 274 172 155 131 115 98 89 84 73 63 64 65 67 72 78 91 109 135 161 174 191 230 260 265 267 260 257 255 254 253 252 252 254 255 254 255 256 256 256 258 247
231 247 266 278 277 219 283 236 167 155 152 138 124 111 99 88 84 77 71 68 69 67 68 78 90 114 143 165 180 200 240 255 252 260 263 263 260 256 253 254 257 257 254 256 255 252 247 251 249
250 242 245 250 272 258 284 256 175 172 176 168 152 135 116 106 97 89 83 74 69 69 73 78 86 94 112 155 199 234 268 287 304 305 292 286 273 264 259 257 258 258 255 255 255 252 249 249 253
223 101 183 240 256 266 220 248 180 176 192 183 167 149 132 119 110 100 90 86 80 76 77 81 85 83 89 111 183 270 285 301 307 306 297 296 286 272 264 260 259 257 256 255 256 255 250 245 246
138 135 131 191 227 242 202 231 203 186 200 185 172 161 150 136 125 113 106 100 91 86 82 81 82 77 75 75 61 326 318 315 314 315 312 307 298 286 275 266 262 260 258 257 256 255 253 249 248
189 221 233 216 212 220 132 240 248 146 189 192 177 167 158 149 142 132 123 112 100 90 84 82 78 72 64 56 35 3 332 319 314 316 312 308 303 298 295 286 274 269 264 263 262 260 257 254 252
196 232 258 278 274 201 186 240 173 106 150 199 182 164 159 158 151 141 131 121 110 97 87 77 69 62 49 34 13 348 330 314 312 310 306 302 299 299 301 295 284 279 276 270 266 263 260 258 256
176 208 291 283 286 270 234 248 245 152 174 172 168 165 168 166 161 153 143 132 118 103 85 69 61 51 32 11 351 339 329 319 313 308 303 298 295 298 296 293 289 285 281 276 273 267 266 263 260
289 154 172 218 250 257 248 239 215 176 172 164 167 171 170 168 167 163 156 141 123 104 89 70 50 29 7 350 343 326 321 318 311 305 303 300 300 299 296 294 292 289 286 281 276 273 270 270 267
164 182 204 207 269 271 271 232 107 175 168 171 171 172 172 174 173 168 159 146 134 117 93 53 26 360 347 338 329 322 319 315 309 304 303 303 300 299 297 296 294 291 289 286 282 277 277 274 272
227 208 194 219 214 237 277 274 103 174 162 170 169 169 173 173 170 166 161 156 151 141 50 351 339 334 332 326 319 316 314 310 308 307 307 305 302 300 298 296 293 290 288 286 284 283 281 278 276